Wind_Speed
45 44 43 42 41 41 41 41 40 38 38 39 40 44 46 47 47 46 45 44 44 43 43 43 43 44 45 46 48 49 51 53 53 53 53 52 51 51 50 48 46 46 45 44 42 42 41 42 41 40 39 39 38 37 36 35 33 31 28 26 25 24 22 21 19 18 17 15 14 11 6 5 7 9 12 13 13 13 14 18 22 20 16 17 21 26 30 32
48 47 46 45 44 44 43 43 43 42 41 41 41 43 46 49 50 49 48 47 46 46 45 45 45 45 45 46 47 48 49 51 53 54 54 54 53 53 53 51 49 48 48 45 44 43 43 43 43 42 41 40 39 38 37 36 35 33 32 29 27 27 25 24 22 20 19 17 17 14 10 9 10 13 14 13 12 14 16 18 19 17 15 17 21 26 28 30
50 50 49 48 47 47 46 46 46 46 45 44 43 44 46 49 51 52 51 50 49 49 48 47 47 46 46 47 47 48 48 50 51 53 55 56 55 55 55 53 51 51 50 48 46 45 45 44 44 43 43 42 40 39 38 37 37 35 34 32 30 29 28 26 25 23 22 21 20 17 15 14 13 14 16 16 16 16 15 14 13 12 14 17 21 24 26 28
53 52 52 51 50 50 49 49 48 48 48 47 46 46 47 48 51 53 54 53 52 52 51 50 49 48 48 48 48 48 49 49 50 52 54 56 56 56 56 55 54 53 52 51 49 48 47 45 45 44 44 43 42 40 39 38 37 37 36 35 32 31 30 29 27 26 25 24 23 21 20 18 15 15 18 19 18 17 14 12 13 14 15 17 20 23 25 28
55 55 55 54 54 53 53 52 52 51 51 51 50 49 49 49 51 53 55 55 55 55 54 53 52 51 50 49 49 49 49 49 50 51 53 54 56 57 57 56 56 55 54 53 52 50 49 47 46 46 46 45 43 41 40 39 39 38 38 37 35 34 33 32 31 29 28 27 26 24 23 21 16 14 18 19 17 18 16 13 12 14 15 15 20 23 24 27
57 58 57 57 57 56 56 55 55 54 53 53 53 52 52 51 52 53 55 56 57 58 57 56 55 54 53 52 51 50 50 50 51 51 52 53 55 56 56 57 57 57 56 55 54 53 51 50 49 48 48 47 44 43 42 42 41 40 39 38 37 37 36 36 34 33 31 30 29 28 27 25 21 17 17 18 17 16 13 11 11 14 14 14 20 23 23 26
58 59 60 60 60 59 59 59 58 58 57 56 55 55 55 54 54 54 55 56 58 59 60 60 59 57 56 55 54 53 52 52 52 52 52 52 53 54 55 57 58 58 57 57 56 55 54 53 51 50 50 48 46 45 45 44 43 42 41 40 39 39 39 39 38 37 35 34 33 32 31 30 27 22 20 19 19 16 11 12 15 14 12 14 20 22 22 25
57 59 60 61 62 62 62 62 61 61 60 59 59 58 58 58 57 57 56 57 58 60 61 62 62 60 59 58 57 56 54 53 53 53 52 52 52 53 54 56 57 57 58 58 58 57 56 55 53 52 51 49 48 47 47 46 45 44 43 43 43 42 42 42 42 41 39 37 36 35 34 33 31 27 24 22 21 17 14 17 18 14 12 15 19 21 22 24
56 58 60 61 62 63 64 64 64 63 63 62 62 61 60 60 60 60 59 59 59 60 62 63 64 63 62 61 60 59 57 56 55 54 53 53 53 53 54 55 55 56 58 59 59 59 58 56 55 53 52 51 51 50 49 48 47 47 47 46 46 46 45 44 43 42 41 39 38 37 36 36 33 30 28 26 24 21 19 20 18 16 16 16 17 19 21 22
57 58 59 60 62 63 65 66 66 66 65 65 65 64 63 63 63 63 62 62 61 61 62 63 65 65 64 64 64 62 60 58 57 56 55 55 55 55 54 54 54 55 57 58 60 59 58 57 56 55 54 54 53 52 51 50 50 50 49 48 48 47 46 44 43 42 41 40 38 38 37 37 36 33 31 30 29 27 25 23 21 20 20 19 18 19 21 22
61 61 61 61 62 63 65 66 67 67 67 67 67 66 66 66 65 65 65 65 64 63 63 64 65 66 66 66 66 65 63 61 60 58 57 57 57 56 56 55 55 55 56 58 59 59 58 58 57 56 56 55 55 54 53 52 53 52 51 50 49 49 47 46 45 43 42 40 39 39 39 39 38 36 34 32 32 31 29 27 24 24 23 21 20 20 22 23
63 64 65 65 65 65 65 66 67 67 68 68 68 68 68 68 68 68 68 67 67 67 66 66 66 66 67 67 68 67 66 64 63 61 60 60 59 58 58 57 56 56 56 57 57 58 58 58 58 57 56 56 57 57 55 55 55 54 53 52 51 50 49 48 47 45 44 42 41 41 40 40 40 38 36 34 33 33 31 29 28 26 24 22 22 21 23 24
62 64 66 68 69 69 68 68 67 67 67 68 69 70 70 71 71 71 71 70 70 70 69 69 68 67 67 67 69 69 68 67 65 64 63 63 62 60 60 59 59 58 57 57 56 57 57 57 58 57 57 57 58 59 58 57 56 55 55 54 52 50 49 49 48 47 45 44 43 43 42 41 40 39 37 35 34 34 32 31 30 28 27 26 24 23 24 24
59 61 64 67 70 72 72 71 70 68 66 66 68 70 72 73 73 73 73 73 72 72 72 72 71 69 68 68 69 70 69 69 68 66 66 66 64 63 62 61 61 60 59 57 56 57 57 57 57 57 57 58 59 60 59 58 58 57 57 56 53 51 50 50 49 48 46 45 45 44 43 42 42 40 39 38 36 35 34 32 31 30 30 30 28 25 25 25
56 58 61 64 67 71 73 74 74 72 69 66 66 68 72 74 75 75 76 76 76 75 75 75 74 72 71 70 70 71 71 70 70 68 68 68 67 66 65 64 63 62 61 59 58 57 57 57 56 56 57 57 58 59 60 60 59 59 59 58 55 53 52 51 50 49 48 47 47 45 44 44 43 42 41 40 38 37 36 34 32 31 31 31 29 26 27 27
53 55 58 61 64 68 71 74 75 75 73 70 67 67 69 73 75 76 78 78 79 79 78 77 76 75 74 73 72 72 72 72 71 70 70 70 70 69 67 66 65 64 63 62 60 59 58 58 57 57 57 57 58 59 60 60 60 60 60 60 57 54 54 53 51 50 49 48 48 46 45 44 44 43 42 41 40 39 37 35 33 32 32 31 29 29 29 27
51 53 55 58 61 64 68 71 73 74 75 73 71 69 68 69 73 76 79 80 81 82 81 80 79 78 77 76 74 73 73 73 72 72 71 71 72 71 70 69 67 66 65 64 62 61 60 60 58 57 57 56 57 58 58 59 60 61 61 61 58 56 55 54 53 52 50 49 48 47 46 45 44 44 43 42 40 39 38 36 34 33 32 31 31 31 31 29
50 51 53 55 58 60 64 67 70 72 74 74 73 72 70 69 70 74 78 81 83 84 83 83 82 81 80 79 78 76 75 75 74 74 73 73 73 74 72 71 70 68 67 65 64 64 63 62 60 58 58 57 57 58 58 60 61 61 60 60 59 57 57 56 55 54 52 51 50 49 47 46 45 44 43 42 41 39 38 36 35 34 33 32 31 32 33 32
49 50 51 53 56 58 60 63 66 68 71 72 73 73 73 72 72 73 75 79 83 85 86 85 85 84 82 82 81 80 79 77 76 75 75 75 75 75 75 73 72 70 68 67 67 66 66 64 62 61 60 60 59 59 60 60 60 59 58 58 58 58 58 58 57 56 55 54 52 51 49 47 46 44 44 43 41 40 38 36 36 34 33 32 32 32 33 33
50 50 51 53 55 56 57 59 62 64 67 70 71 72 73 74 74 74 75 77 81 85 88 88 88 87 85 84 84 83 81 80 78 77 76 76 76 76 76 75 73 72 71 70 70 69 68 66 64 64 64 63 61 60 59 59 58 57 57 57 58 59 58 58 58 58 56 55 54 52 51 49 48 46 45 43 42 40 39 37 37 35 34 33 33 33 33 34
51 52 52 52 54 55 56 57 59 61 64 67 70 72 73 74 75 76 77 78 81 85 88 90 90 89 89 88 86 85 84 83 81 79 78 77 77 77 77 76 75 74 74 73 72 70 69 67 68 68 67 65 63 61 60 58 57 56 56 56 57 58 58 56 56 57 57 55 53 52 52 51 49 48 46 45 43 41 40 39 38 37 35 35 34 34 34 34
52 54 53 52 53 55 54 55 56 58 62 65 68 71 73 75 77 78 79 81 83 85 88 91 93 92 91 90 89 88 87 86 84 82 81 79 79 78 77 77 77 76 76 75 73 71 70 70 72 72 69 67 66 64 62 60 58 56 56 56 57 58 57 55 54 55 56 56 54 51 51 50 48 47 46 45 43 41 40 39 38 37 36 36 36 36 35 33
54 55 54 53 52 53 53 53 55 57 59 63 65 68 71 75 79 81 83 85 87 88 89 91 94 94 94 93 92 90 89 88 86 85 84 82 81 79 78 78 78 78 77 76 74 73 73 76 77 75 72 70 68 67 64 61 59 58 57 58 59 58 57 56 54 53 54 56 55 52 50 49 47 46 45 44 42 41 40 39 38 37 36 36 36 36 34 33
55 56 56 53 50 51 52 51 53 55 57 60 62 65 69 74 78 82 85 88 90 91 91 92 94 96 97 96 94 93 92 91 89 88 86 85 83 82 81 80 80 79 78 77 76 76 77 79 79 76 74 72 70 68 66 63 61 60 60 60 60 59 57 56 55 53 52 53 55 53 50 48 48 47 46 44 42 40 39 38 37 36 36 35 34 34 33 32
56 56 56 53 49 49 50 49 51 54 55 57 58 61 66 71 76 80 85 89 92 94 94 94 96 98 99 98 96 95 94 93 92 90 89 87 86 85 83 82 81 80 80 79 78 77 79 80 79 77 76 74 72 71 68 66 64 62 62 63 63 61 59 57 54 52 51 51 53 52 50 48 47 46 43 41 40 39 37 36 36 35 35 34 33 32 31 31
59 57 56 54 48 46 47 47 49 52 53 54 55 58 63 68 72 76 82 86 92 96 97 97 97 99 100 100 99 98 96 96 94 92 92 91 89 88 85 84 83 81 80 79 78 78 79 79 79 78 78 76 75 73 71 69 66 64 65 67 66 64 61 58 55 53 51 49 49 50 49 47 45 43 41 39 37 37 36 36 36 34 33 32 32 31 31 30
61 58 54 52 48 44 44 45 47 49 50 51 53 56 60 64 67 71 76 82 88 94 98 100 99 100 100 101 101 100 99 98 96 95 94 93 91 89 88 86 84 82 80 79 78 79 80 79 79 79 78 77 76 75 73 71 69 68 69 70 68 66 64 60 57 55 52 50 48 48 48 46 44 41 39 37 35 35 36 37 36 35 33 32 32 31 31 31
63 58 53 49 46 42 41 42 44 46 47 49 52 54 57 60 63 67 71 76 82 89 96 100 101 100 100 102 102 102 102 100 98 97 96 94 93 92 90 88 86 84 82 81 80 81 81 80 80 79 78 78 77 77 76 74 72 71 72 72 71 69 66 63 60 58 55 52 49 49 48 46 44 42 38 36 35 36 36 36 35 34 33 33 32 31 32 32
63 57 51 46 43 39 38 40 41 43 45 48 51 53 55 58 61 64 67 71 77 83 90 97 101 101 101 102 103 104 104 102 100 99 98 96 95 93 92 90 88 86 84 83 82 82 82 81 81 80 79 79 79 79 78 76 75 75 75 74 73 71 68 65 63 60 57 54 52 51 49 48 46 44 40 38 39 38 36 35 34 34 33 33 32 31 32 32
62 55 48 43 40 37 36 37 39 41 43 46 49 51 53 55 58 61 63 68 72 76 83 91 98 101 101 102 103 104 105 104 103 101 100 98 97 94 92 91 89 87 85 84 84 83 82 82 81 81 81 81 81 80 79 78 79 79 78 76 75 73 70 67 65 63 60 57 55 53 51 49 48 46 44 44 43 40 37 36 35 35 34 32 32 32 31 31
59 52 46 41 37 34 33 35 37 39 41 43 47 50 51 54 56 58 61 64 67 71 76 83 91 98 101 102 102 104 105 106 106 104 102 99 97 95 94 92 91 89 87 86 86 84 83 83 82 83 82 82 81 80 80 80 81 81 80 78 77 76 73 70 67 65 62 60 58 55 53 51 49 49 49 49 46 43 41 39 38 37 35 33 32 32 31 29
56 49 43 38 34 32 31 32 34 36 38 40 43 47 50 52 54 57 60 62 64 67 70 74 82 90 97 101 102 103 105 107 107 105 103 100 98 97 95 94 93 91 89 88 87 86 85 84 84 84 83 82 81 81 81 81 81 82 81 80 79 78 76 73 70 68 65 63 61 58 55 53 51 52 53 52 49 46 44 41 39 38 36 34 33 32 30 28
53 47 41 36 32 29 28 30 31 33 35 37 40 43 47 51 54 57 59 60 61 63 65 69 74 82 91 98 101 102 104 106 106 105 103 102 100 98 97 96 94 92 91 90 89 88 87 86 86 86 84 83 82 82 82 82 81 82 82 81 80 79 78 75 73 70 68 67 65 62 59 56 55 56 57 56 53 49 45 41 40 39 37 36 33 31 29 27
52 45 39 34 29 26 26 27 28 30 32 34 37 41 46 50 53 56 58 59 60 62 64 68 71 76 83 91 98 102 103 104 105 104 104 103 102 101 99 97 95 93 92 91 91 90 88 88 88 87 85 83 83 83 83 82 82 82 83 82 81 80 79 77 75 73 71 70 69 66 63 61 59 60 61 60 55 51 46 43 41 40 39 37 34 32 30 28
51 44 38 32 27 24 23 24 26 27 30 33 36 39 43 47 51 55 57 59 60 62 65 67 69 72 77 84 92 99 102 103 103 104 104 104 103 102 101 99 96 94 93 92 92 91 90 90 89 88 85 84 84 85 85 84 84 84 84 83 83 82 81 79 78 76 74 73 72 69 67 64 64 64 64 62 58 53 49 44 42 42 41 38 36 34 32 30
51 44 37 31 26 23 21 22 23 25 28 31 34 37 40 44 48 53 57 59 60 62 64 66 68 69 72 78 85 93 99 101 102 102 103 103 103 102 102 100 98 96 95 94 93 93 92 91 91 89 87 86 86 86 86 86 86 85 85 84 84 82 81 80 79 78 76 76 74 72 70 69 68 68 66 63 59 56 51 45 41 41 41 41 39 36 33 32
51 43 37 30 25 22 20 20 21 24 26 29 32 35 38 41 46 51 55 58 60 62 63 64 65 66 68 72 78 87 95 99 101 101 101 102 102 102 102 101 100 98 97 95 95 94 93 93 92 91 89 88 88 88 88 88 88 86 85 85 85 83 82 81 80 79 78 77 77 76 74 73 72 69 65 63 60 56 52 46 42 41 41 41 41 38 35 34
51 43 37 30 25 21 19 18 19 22 24 27 30 33 36 40 44 48 52 55 58 60 61 61 62 63 65 67 71 77 86 92 97 99 100 101 102 102 102 101 101 100 99 98 97 97 96 95 94 93 92 91 90 89 89 90 89 88 87 86 86 85 84 82 81 79 79 79 79 79 78 75 72 69 66 63 60 57 53 50 47 43 41 42 43 40 37 35
51 43 36 30 25 21 18 17 17 19 22 24 27 30 33 36 40 45 49 53 56 58 59 59 59 61 63 65 66 70 76 84 91 97 99 100 101 102 102 102 102 101 101 100 99 99 99 98 96 95 94 93 92 92 92 92 91 89 88 88 88 87 85 83 82 80 80 80 81 82 81 77 72 70 68 65 61 58 56 53 50 47 44 44 44 42 39 36
52 42 36 30 25 21 18 15 15 17 19 22 24 27 31 34 37 41 45 49 53 55 57 59 59 60 61 63 64 66 69 76 83 91 97 100 101 102 103 103 103 102 102 101 101 102 101 101 100 99 98 96 96 95 95 93 92 91 90 89 88 88 86 84 84 83 82 82 82 84 83 78 74 72 71 67 63 60 58 56 53 51 49 48 47 45 42 39
52 43 36 30 26 21 17 14 14 15 18 20 22 25 29 33 36 38 41 45 49 52 55 58 59 60 61 62 63 65 67 70 76 84 91 96 99 101 102 103 104 104 103 102 102 103 103 103 103 103 102 101 100 99 97 95 94 93 92 91 89 88 86 85 85 84 83 83 83 84 83 79 76 74 73 70 66 63 61 58 56 55 54 53 51 49 46 44
53 43 36 31 26 22 17 14 13 14 15 17 19 23 27 30 33 35 38 42 46 49 53 57 59 61 62 63 64 65 66 67 71 77 84 90 95 98 101 102 103 105 105 104 104 105 105 106 106 107 107 105 104 102 100 99 97 96 95 93 91 90 88 86 85 85 84 83 84 84 83 81 78 76 74 72 68 66 64 62 59 58 57 57 56 54 51 49
54 44 37 31 27 23 18 14 12 12 14 15 18 21 25 28 31 33 36 40 44 48 51 55 58 59 60 61 62 63 64 66 68 71 77 84 90 95 99 101 102 104 105 106 106 106 107 107 109 110 110 109 107 105 104 102 101 100 98 96 94 92 90 88 87 86 86 86 85 85 83 82 80 77 75 73 71 69 67 65 63 61 60 60 60 58 54 51
55 46 38 33 28 24 19 15 12 12 12 14 16 20 24 27 29 32 35 38 41 45 48 52 55 57 59 60 61 62 63 65 66 68 72 77 84 90 95 98 100 102 104 105 106 107 108 108 110 111 112 111 110 108 107 105 104 103 101 99 97 95 93 92 90 89 88 88 87 86 84 83 81 78 75 73 72 71 69 68 67 64 63 63 63 60 57 53
56 47 40 35 30 25 21 16 12 11 11 12 15 18 22 25 28 30 33 36 39 42 45 48 52 54 57 59 60 61 62 64 65 66 67 71 77 84 90 95 98 100 102 103 104 106 106 107 109 110 111 111 110 109 108 107 106 105 104 102 100 98 97 96 94 93 91 89 88 87 86 84 82 80 78 75 73 72 71 70 69 68 67 66 64 62 61 56
59 50 42 37 32 27 23 18 14 12 11 11 13 16 20 23 26 29 31 34 37 39 42 45 47 50 53 56 59 61 62 63 64 65 66 67 71 77 83 90 95 98 100 101 103 104 105 106 108 109 110 110 109 109 108 108 107 106 105 104 103 102 101 99 98 96 94 93 91 89 88 86 84 82 80 78 75 74 73 72 71 71 70 68 66 64 64 62
62 53 45 39 34 29 24 20 16 13 11 11 12 15 18 21 25 28 30 32 35 37 40 42 45 47 51 53 56 59 61 63 64 65 65 66 67 71 76 83 89 94 98 100 101 102 103 104 107 109 111 111 110 109 108 108 108 107 106 106 105 105 104 102 101 99 98 97 95 93 90 88 86 83 81 79 77 76 74 73 73 73 73 71 68 67 66 66
64 56 48 42 36 31 26 21 17 14 12 11 11 13 16 20 23 26 29 32 33 36 38 41 43 45 48 50 53 56 59 61 63 65 66 66 67 68 72 77 83 89 94 97 99 101 101 103 105 108 111 113 112 111 110 109 109 108 107 107 107 107 106 105 104 103 102 101 99 96 93 91 88 85 83 82 80 78 77 75 75 75 75 73 71 69 68 68
66 58 50 44 39 33 28 23 19 15 12 11 11 13 15 18 21 24 28 30 33 35 37 39 41 44 46 48 50 52 55 58 61 64 66 66 67 68 69 73 78 83 89 93 97 99 100 101 104 106 109 112 114 113 112 111 110 110 108 108 108 108 108 108 107 106 105 104 102 99 96 94 91 88 86 85 83 81 79 78 77 76 76 75 73 72 71 70
67 59 52 46 41 36 31 25 20 16 13 11 11 11 13 16 18 22 25 28 31 33 35 38 40 43 45 46 48 50 52 55 58 61 63 65 67 68 69 70 73 78 83 88 93 97 99 101 103 105 107 110 113 114 114 113 112 111 110 110 110 110 110 110 109 108 107 106 104 102 99 97 95 92 90 89 87 85 82 80 79 77 76 76 75 74 73 72
69 61 54 48 43 39 34 28 22 18 14 12 11 11 12 14 16 19 22 26 28 31 33 36 39 41 43 45 47 49 50 52 54 57 60 63 65 67 68 70 72 74 78 83 88 93 97 100 102 104 106 109 112 113 114 114 114 113 112 112 112 112 112 112 111 110 109 108 106 105 103 101 99 97 95 93 91 89 86 83 81 80 78 77 76 76 75 75
71 63 57 51 46 41 36 31 24 19 15 12 10 10 11 13 15 17 20 23 26 29 32 34 36 38 41 43 45 47 48 49 51 53 56 59 62 65 67 69 71 73 75 78 83 88 93 97 100 103 105 108 110 112 113 114 114 114 115 115 115 115 114 113 113 112 111 110 108 107 106 104 102 100 99 97 95 94 91 87 84 82 80 78 77 77 77 77
Wind_Direction
261 259 257 255 252 250 248 245 243 239 236 232 229 228 229 229 229 228 225 222 221 222 222 222 222 222 222 222 223 223 223 222 222 222 223 224 224 225 226 225 226 226 225 224 224 224 225 225 224 224 223 222 221 221 221 221 221 221 219 213 208 211 214 213 211 213 219 223 219 219 236 228 234 258 262 266 284 293 291 295 298 305 316 316 316 318 327 342
262 260 258 255 253 250 248 246 243 241 238 234 231 229 228 228 229 229 228 226 223 223 224 224 223 223 224 223 223 223 224 224 223 223 223 223 224 226 227 226 227 228 227 227 226 226 226 227 226 226 225 224 222 222 223 223 223 224 222 218 213 214 217 216 214 216 222 226 223 224 233 219 219 240 251 261 274 285 290 297 301 305 313 313 311 315 328 342
262 261 259 256 253 251 249 246 244 242 239 236 233 230 228 228 229 229 229 229 227 225 224 225 225 224 224 225 224 223 223 224 225 224 224 223 223 225 226 226 227 228 229 228 228 228 228 229 229 229 228 226 224 224 224 225 226 227 226 222 219 219 220 219 218 219 225 230 229 226 232 235 233 239 250 257 260 272 287 297 306 307 303 305 311 319 333 343
263 261 259 257 255 252 249 247 245 242 240 238 235 232 230 229 228 229 229 229 229 228 226 226 226 226 225 226 226 224 223 223 224 225 225 224 224 225 226 226 227 228 229 229 229 230 230 230 231 232 231 230 228 227 227 227 229 230 229 226 224 223 224 224 222 223 227 232 233 227 229 240 245 243 247 253 260 271 278 287 303 309 303 307 317 325 336 345
263 262 260 258 256 254 251 248 246 243 241 239 237 234 232 230 229 229 228 228 229 229 229 227 227 227 226 226 227 226 225 223 223 225 226 226 225 225 226 226 226 227 228 229 229 230 230 231 231 232 233 232 230 230 230 230 231 232 232 230 228 227 228 229 227 226 229 232 234 232 231 239 247 245 244 246 258 269 273 279 300 317 312 314 326 329 336 343
263 262 260 259 257 255 252 250 247 244 241 239 237 236 234 232 230 229 228 228 228 229 229 229 228 227 227 227 227 227 226 225 224 224 225 226 227 226 226 226 226 227 227 228 228 229 229 230 231 232 234 233 232 232 232 232 232 233 232 233 233 232 232 233 231 229 229 230 235 236 237 241 244 247 247 245 254 268 279 284 299 317 312 316 330 330 333 340
262 261 260 259 257 255 253 251 248 246 243 240 238 236 235 233 232 230 229 228 229 229 229 229 229 228 228 228 228 228 227 227 226 225 225 225 226 227 227 227 227 227 227 227 228 228 228 229 230 232 233 234 234 233 233 232 232 232 232 233 234 234 234 234 234 232 229 229 232 236 240 243 244 248 251 252 260 270 274 274 287 304 300 306 322 323 327 337
262 261 259 258 257 256 254 252 249 247 245 242 239 237 235 234 233 232 230 229 228 229 229 229 230 229 229 228 228 228 228 228 227 227 226 225 226 227 228 228 227 227 227 228 228 228 228 228 229 231 232 234 234 234 234 233 233 233 233 234 234 233 233 233 233 234 232 229 231 235 240 244 246 248 251 256 263 266 263 269 283 291 284 294 312 317 320 331
263 261 260 258 257 255 254 252 250 248 245 243 241 238 236 234 233 232 232 230 229 229 229 229 229 229 229 229 228 228 227 228 228 228 227 227 226 226 227 228 228 228 227 227 228 228 228 228 228 230 231 232 233 233 234 234 234 234 233 234 234 234 234 234 234 235 236 235 234 236 240 245 248 249 251 255 259 261 265 274 279 277 282 295 307 312 311 323
265 263 261 260 258 256 254 252 250 248 246 244 242 240 238 236 234 233 232 231 230 229 229 229 230 229 229 229 229 228 227 227 228 228 228 228 227 226 226 227 227 228 228 228 228 228 228 229 229 229 230 230 232 233 233 234 235 235 234 234 235 236 237 237 237 238 240 241 242 242 245 248 250 251 251 253 255 258 266 274 272 272 283 291 299 304 301 311
266 264 263 261 260 257 255 253 251 249 247 245 243 241 239 237 235 234 232 231 231 230 229 230 230 229 229 229 230 229 227 226 227 227 227 228 228 228 227 226 226 228 229 229 228 228 228 228 228 229 230 231 232 232 232 233 235 235 235 235 235 235 236 238 238 239 240 242 244 245 247 249 251 252 252 252 253 257 263 267 267 273 279 281 290 294 288 296
264 264 263 262 261 259 257 255 252 249 247 245 243 241 239 238 236 235 233 232 231 231 230 230 229 229 229 229 230 230 228 226 226 226 227 228 228 228 228 227 227 227 228 229 229 228 227 228 228 228 229 231 232 232 232 233 235 236 236 235 235 235 236 237 238 238 239 239 242 245 246 249 250 252 253 252 253 256 260 261 263 270 272 274 285 287 279 284
263 263 262 262 261 260 259 257 254 251 247 244 243 242 240 238 237 236 234 232 231 231 230 230 229 229 229 229 229 229 228 227 225 225 226 227 227 228 228 228 228 227 228 229 229 229 228 228 227 227 228 229 231 232 233 233 235 236 237 237 236 236 237 238 238 239 239 240 242 244 246 249 251 253 254 254 255 256 259 259 261 264 266 268 277 279 273 278
264 262 261 261 260 260 259 258 257 254 249 245 242 241 240 238 236 236 235 233 232 231 230 230 229 229 229 229 229 229 229 228 226 225 226 227 227 227 228 228 229 228 228 228 229 230 229 228 228 227 227 228 230 232 233 233 234 236 237 238 237 237 238 239 240 240 240 241 242 243 245 248 251 252 253 254 256 257 258 259 261 262 262 266 270 270 267 272
266 264 262 261 260 259 259 258 257 256 253 248 243 240 239 238 236 235 234 234 232 231 230 230 229 229 229 229 229 229 229 228 227 225 225 227 227 227 227 228 229 229 228 227 228 229 229 229 228 228 228 228 229 231 233 234 234 236 237 238 237 237 239 240 240 240 241 241 242 242 244 247 249 251 253 253 255 257 258 259 260 261 261 264 267 264 260 266
270 267 264 262 260 259 258 257 257 256 254 251 246 241 238 238 237 235 234 233 232 232 231 230 229 229 228 228 228 228 229 228 227 226 225 226 227 226 226 227 228 228 228 228 227 228 229 229 229 228 228 228 229 230 231 232 233 235 237 239 238 238 240 241 241 242 242 242 243 243 243 245 248 251 252 253 254 255 257 258 259 259 259 262 264 262 259 266
276 271 268 264 261 259 258 257 256 255 254 252 249 245 240 237 236 235 234 232 232 232 231 230 229 228 228 228 228 228 229 229 228 227 225 226 227 227 226 226 227 228 228 228 228 228 228 229 229 229 229 229 229 229 230 231 232 233 235 238 239 239 240 241 242 243 244 245 246 245 245 245 247 250 252 253 254 255 256 257 257 258 258 260 263 263 263 269
282 278 273 269 264 260 258 257 255 254 253 252 250 248 244 240 237 235 234 232 231 231 230 230 229 228 228 228 228 228 228 228 228 227 226 226 227 227 226 226 226 227 227 227 228 228 228 229 229 229 229 229 229 229 230 230 231 232 234 237 238 239 240 241 242 243 245 246 247 247 247 247 248 250 252 254 254 255 256 257 257 257 257 258 260 263 267 271
288 284 280 275 270 264 259 256 254 253 251 251 250 247 245 242 238 235 234 233 232 231 230 229 229 228 227 227 227 227 227 227 227 227 226 226 226 227 227 226 226 226 226 226 227 227 228 228 228 228 228 228 229 230 231 232 232 233 233 235 236 237 238 239 240 241 243 244 246 247 247 248 248 249 251 253 255 256 257 257 257 258 258 259 260 263 267 271
292 289 285 281 276 269 263 258 254 251 249 248 248 246 244 242 239 236 234 232 232 230 229 229 228 228 227 227 227 227 227 227 227 227 227 226 226 227 228 227 227 226 226 226 226 226 227 228 228 227 228 229 229 230 232 233 233 233 233 234 235 236 236 238 239 240 241 243 245 247 247 248 248 249 250 252 254 256 257 258 258 259 260 261 262 264 266 269
296 293 288 285 280 274 268 261 255 251 248 246 245 244 242 241 239 237 234 232 231 230 229 228 228 227 227 226 226 226 227 227 227 227 227 227 226 226 227 227 227 227 226 226 225 225 226 227 227 228 228 229 229 230 231 231 232 233 234 235 236 236 236 236 239 240 241 242 243 246 248 249 250 251 251 252 253 254 256 257 258 259 261 262 263 263 264 266
300 297 292 287 283 277 271 265 258 252 248 245 243 242 241 240 238 236 234 232 230 229 228 227 227 226 226 226 226 226 226 226 226 227 227 227 226 226 226 227 227 227 227 226 225 225 225 226 227 228 228 228 229 230 230 230 231 232 233 235 236 237 236 235 237 239 241 241 241 242 245 248 250 252 253 253 253 254 255 255 256 257 258 259 260 261 262 264
305 301 296 290 285 279 273 267 260 255 250 246 243 241 239 237 236 234 232 231 229 228 227 227 226 226 225 225 225 225 225 226 226 226 226 227 227 226 226 226 226 227 227 227 226 225 224 226 227 228 228 228 229 230 230 230 230 231 232 234 236 237 236 235 235 236 240 241 241 240 242 245 248 249 250 251 253 253 254 254 255 255 255 255 256 259 260 262
308 305 300 293 288 281 274 268 262 256 252 248 244 241 238 235 234 232 231 229 228 227 227 226 225 225 225 224 224 224 224 225 225 225 226 226 227 226 226 226 226 226 226 226 226 225 225 227 228 228 228 228 228 229 229 229 229 230 231 233 235 236 236 236 235 235 237 241 242 241 241 243 246 247 249 251 252 252 253 254 254 254 254 254 254 256 257 259
312 309 303 296 290 284 276 269 263 258 253 249 245 241 238 235 232 231 229 228 227 226 226 225 225 224 224 224 224 224 224 224 224 225 225 226 226 226 226 226 226 226 226 226 226 226 226 228 228 228 228 228 228 228 228 228 227 228 230 232 234 235 236 236 236 235 236 239 243 244 242 242 244 247 249 251 251 252 253 253 253 253 254 254 253 253 254 255
315 311 306 299 293 285 278 270 263 258 253 249 245 240 238 235 232 230 228 227 225 225 225 224 224 224 223 223 223 223 224 224 224 224 225 225 225 226 226 226 226 226 226 226 226 226 227 228 228 228 228 228 229 228 228 228 227 227 229 232 234 235 235 236 236 236 235 237 241 244 244 243 244 246 247 248 250 251 251 251 251 251 252 253 252 252 251 251
319 313 308 302 295 287 278 271 264 258 254 249 243 239 237 235 233 230 228 227 225 224 224 223 224 224 223 223 223 223 223 223 223 223 224 225 225 225 226 226 226 226 226 226 226 227 227 228 228 228 228 229 229 229 229 228 227 226 229 232 233 234 235 235 235 235 235 235 237 241 243 243 243 243 244 246 248 248 248 248 249 249 249 249 250 250 248 247
321 315 310 303 296 288 279 271 264 258 253 248 243 239 236 235 233 231 228 227 226 224 223 223 223 223 223 222 222 222 223 223 223 223 223 224 225 225 225 226 226 226 226 226 226 227 227 227 228 228 228 229 229 229 229 229 227 227 229 231 233 234 235 234 234 234 234 233 233 236 240 241 241 240 241 243 244 243 244 246 247 247 246 246 246 246 245 245
322 317 312 305 297 289 279 270 263 257 251 246 242 238 235 233 232 231 229 227 226 224 223 223 222 222 222 222 222 222 223 223 223 223 223 223 224 225 225 226 226 226 226 226 226 227 227 227 228 228 228 228 228 228 228 228 228 228 229 231 233 235 235 234 234 234 234 233 231 233 236 238 240 239 237 237 237 238 240 243 245 244 243 244 244 243 242 242
324 319 314 307 298 289 279 270 262 255 249 244 241 238 234 231 230 230 229 228 226 225 224 223 222 222 222 222 222 222 223 223 223 223 223 223 224 224 225 225 226 226 227 227 227 227 227 227 228 228 228 228 228 228 228 228 228 229 229 230 232 234 235 234 234 235 234 232 231 231 233 236 238 239 236 235 234 234 236 238 240 241 240 240 241 241 240 239
325 321 315 308 299 290 279 269 261 254 248 243 239 236 233 230 229 229 229 228 227 225 224 223 223 222 222 222 222 223 223 223 223 223 223 223 223 224 224 225 225 226 226 227 228 228 228 228 228 228 228 229 229 229 229 229 229 230 230 230 231 232 233 234 234 235 234 233 231 230 231 232 235 237 237 236 235 233 232 233 235 237 237 236 238 239 238 235
327 323 317 309 301 291 279 268 260 254 248 243 238 235 232 229 227 226 227 228 227 226 225 224 224 223 222 222 222 223 223 223 223 223 223 223 223 224 224 224 224 225 226 227 227 227 228 228 229 229 229 229 229 229 229 229 230 231 231 231 231 232 233 233 233 234 233 233 231 230 229 229 231 235 236 237 236 234 231 231 233 235 236 234 235 237 237 233
330 325 319 312 303 292 279 268 259 253 248 243 238 234 230 228 226 225 226 226 226 226 225 224 223 223 223 222 222 223 223 224 224 224 223 223 223 224 224 225 225 225 225 226 227 227 227 228 228 229 229 229 229 230 230 229 230 231 232 232 231 232 233 232 232 233 232 232 232 230 228 227 227 231 234 235 235 234 232 229 230 233 234 233 233 234 236 232
333 328 323 316 306 293 280 269 260 252 246 240 235 231 229 226 225 224 224 225 225 224 224 223 223 222 222 222 222 222 223 224 224 224 224 223 223 224 224 225 225 225 226 226 227 227 227 228 228 228 229 229 229 230 230 230 230 231 232 232 232 232 233 232 232 232 231 233 233 231 229 227 226 228 232 234 234 234 232 227 226 229 232 232 231 231 231 227
336 331 327 320 309 296 282 271 261 251 243 238 234 230 227 225 224 223 223 223 223 223 223 223 223 222 221 221 221 222 222 223 224 224 224 224 224 224 224 225 225 225 226 227 227 227 227 228 228 228 228 229 229 230 230 230 229 230 231 232 232 232 232 232 232 232 231 233 235 233 231 228 226 227 230 232 233 233 233 228 223 224 229 231 230 230 229 225
340 335 330 324 314 301 286 272 261 251 242 237 233 230 226 224 222 222 223 222 222 222 223 223 223 222 222 221 221 221 221 222 223 224 224 224 224 224 225 225 225 226 226 227 227 228 228 228 228 228 228 228 229 229 230 230 230 229 230 231 232 232 232 232 232 232 232 233 235 235 232 229 228 227 228 230 232 233 234 232 226 222 225 230 231 230 228 225
343 338 334 328 319 307 292 276 262 252 244 238 234 230 226 222 221 221 222 222 222 223 224 224 224 223 224 224 223 221 221 221 222 223 223 224 224 225 225 225 226 226 226 227 228 228 228 228 228 229 228 228 229 229 230 230 230 230 230 231 231 231 231 231 232 232 232 233 235 235 233 231 230 230 230 231 232 232 233 234 232 226 224 229 233 231 227 225
345 341 336 332 324 313 299 281 265 254 246 239 234 231 226 222 220 220 221 222 222 223 224 224 224 224 224 225 225 224 222 221 222 222 222 223 224 224 224 225 226 226 226 227 228 229 229 229 229 229 229 228 229 229 230 230 230 230 230 230 231 231 230 230 231 231 232 233 234 236 235 233 232 232 232 232 232 232 232 232 233 230 225 226 232 233 229 226
348 343 339 335 329 320 306 288 269 256 247 241 236 232 229 225 221 221 222 222 222 222 223 224 223 224 224 225 225 225 224 222 222 222 222 222 222 223 223 224 225 225 226 226 227 228 229 229 229 229 229 229 229 229 229 230 230 230 230 230 231 231 231 230 230 229 230 231 233 235 236 234 233 233 234 233 232 232 231 230 231 232 229 226 228 231 230 227
350 346 342 339 334 327 314 294 274 258 247 240 235 230 227 224 221 221 222 222 222 222 222 222 222 222 224 224 225 225 224 223 222 222 222 222 222 222 222 223 223 224 225 226 226 227 228 229 229 229 229 229 229 229 229 230 230 230 230 230 230 231 231 231 230 229 229 229 230 233 234 234 232 232 234 233 232 231 231 229 229 230 230 229 227 228 229 227
352 348 346 343 338 333 320 301 280 263 251 241 235 229 226 224 221 219 220 221 222 222 222 222 222 221 221 223 224 224 225 224 222 222 223 222 222 222 222 223 223 223 224 224 225 226 227 228 229 229 229 229 229 229 229 230 230 230 230 229 230 230 230 231 231 231 230 230 230 232 233 232 231 230 232 232 231 230 230 229 227 227 228 229 228 227 226 224
354 352 349 347 343 338 328 309 288 268 255 244 236 230 227 226 224 221 220 220 221 221 222 222 222 222 221 221 222 223 224 224 223 222 222 222 222 222 223 223 223 223 223 224 224 225 226 227 228 229 229 228 229 229 229 229 229 230 230 229 229 229 230 230 231 231 231 231 231 232 233 233 231 229 229 230 230 229 229 228 227 226 226 228 228 227 224 222
356 355 353 351 348 344 335 318 296 274 258 245 234 229 226 225 224 223 221 220 220 220 221 222 222 223 223 223 223 223 224 225 224 224 223 222 222 222 222 223 223 223 223 224 224 225 226 226 228 229 228 228 228 228 229 229 229 230 230 230 229 229 229 229 230 230 231 231 231 232 233 234 233 230 228 228 227 228 227 227 226 225 226 227 228 228 225 223
358 357 356 356 353 349 342 327 304 282 264 248 237 230 227 225 224 223 222 221 222 222 222 222 222 222 223 223 223 224 224 225 225 225 224 223 223 222 222 223 223 224 224 224 225 225 226 227 228 229 229 228 228 228 228 229 229 230 230 230 229 229 229 229 229 229 230 230 230 230 231 232 233 232 230 228 227 226 226 226 225 225 224 226 228 229 229 225
0 360 359 359 357 353 348 336 316 292 271 254 240 233 230 228 226 225 224 223 223 223 223 224 224 224 224 223 223 223 224 225 225 226 225 225 224 223 223 223 223 224 224 225 225 225 226 227 229 230 230 230 229 229 229 229 229 230 230 230 230 230 230 229 229 229 229 230 231 230 230 230 232 232 231 229 227 226 225 224 224 224 224 224 225 228 230 228
2 2 2 2 360 356 351 342 328 306 282 261 246 237 233 231 229 227 226 225 225 225 225 225 226 226 225 225 224 224 224 224 225 225 226 225 225 224 224 224 224 224 224 225 225 225 226 227 229 230 231 230 230 230 230 230 230 230 231 231 231 231 230 230 230 230 229 230 230 230 229 229 230 231 231 230 228 226 225 224 223 223 223 222 222 224 228 230
2 3 4 4 3 359 354 347 337 320 298 274 254 242 237 234 232 230 229 228 227 227 227 227 227 227 226 226 225 225 225 225 225 225 226 226 225 225 225 225 225 225 225 225 225 226 226 227 228 229 230 230 230 230 230 230 230 230 231 231 231 232 231 231 230 230 230 230 230 230 229 229 229 229 230 230 229 227 226 224 223 223 222 221 220 221 224 229
2 3 4 5 4 2 357 351 343 330 312 292 268 250 241 236 234 234 233 231 230 228 228 228 229 229 229 228 227 226 226 226 226 226 226 226 225 225 225 225 225 225 225 225 226 226 226 227 228 229 230 230 230 229 229 229 229 230 230 231 231 231 232 232 231 231 231 231 230 230 229 229 228 229 229 229 229 228 226 225 223 222 222 220 219 219 220 224
2 3 4 5 5 4 360 354 348 338 323 305 284 265 252 243 238 236 236 235 233 231 230 230 230 231 231 231 230 228 227 227 227 227 226 226 226 226 225 225 225 226 226 226 226 226 226 227 228 230 231 231 230 230 229 229 229 229 229 230 230 231 231 231 231 231 231 231 231 230 229 229 228 228 228 229 228 227 226 225 224 223 221 220 218 218 218 220
2 3 4 5 6 5 2 357 351 344 332 314 296 278 264 254 247 243 241 240 238 236 234 233 233 233 233 233 233 232 230 228 228 228 228 228 227 226 226 226 226 226 226 227 227 226 226 226 227 229 230 232 232 231 230 229 229 229 229 229 229 230 230 230 230 230 231 231 231 231 230 229 228 227 227 228 228 227 226 225 224 223 222 220 218 217 217 218
1 2 3 5 6 6 4 0 355 349 341 326 311 295 278 266 256 249 246 244 243 241 239 237 236 235 235 235 234 234 233 231 229 228 228 229 229 228 227 227 227 227 227 227 228 227 227 226 227 228 230 231 232 232 231 230 229 229 229 229 229 229 230 230 230 230 230 230 230 230 230 229 229 228 227 227 228 227 226 224 223 223 222 220 218 217 216 216
1 2 3 4 5 6 5 3 359 354 348 336 320 305 292 279 269 260 253 249 246 244 243 241 240 239 238 238 237 237 237 236 234 232 229 229 229 229 229 229 228 228 228 228 229 229 229 228 228 228 229 231 232 233 232 231 230 229 229 229 229 229 229 230 230 230 229 229 229 229 229 229 228 228 227 227 227 227 226 224 223 222 222 221 219 218 217 216
Height
10910 10911 10912 10912 10913 10914 10915 10915 10917 10918 10919 10921 10923 10925 10926 10928 10929 10930 10931 10932 10933 10934 10935 10937 10938 10940 10942 10944 10946 10948 10951 10953 10955 10957 10959 10961 10963 10964 10966 10969 10971 10972 10974 10976 10979 10980 10982 10982 10983 10985 10986 10988 10990 10991 10993 10995 10997 10998 11000 11003 11004 11005 11006 11007 11008 11009 11009 11010 11011 11012 11012 11013 11012 11011 11011 11011 11011 11011 11011 11012 11011 11011 11010 11009 11009 11008 11007 11005
10903 10904 10905 10906 10907 10908 10909 10910 10911 10912 10914 10915 10917 10919 10921 10922 10923 10925 10926 10928 10929 10930 10931 10932 10934 10935 10937 10939 10941 10944 10946 10949 10951 10953 10954 10956 10959 10960 10962 10965 10967 10969 10971 10974 10976 10977 10979 10979 10981 10982 10984 10985 10987 10989 10991 10993 10995 10996 10998 11000 11002 11003 11004 11006 11007 11008 11008 11009 11009 11010 11011 11011 11011 11010 11010 11010 11011 11010 11011 11011 11010 11010 11010 11009 11009 11009 11007 11005
10897 10898 10899 10900 10901 10902 10903 10904 10905 10906 10908 10910 10911 10913 10915 10916 10918 10919 10921 10923 10924 10925 10926 10927 10929 10931 10933 10934 10937 10940 10942 10944 10946 10948 10950 10952 10955 10956 10958 10961 10964 10965 10968 10971 10973 10974 10976 10977 10978 10980 10981 10983 10985 10988 10989 10992 10993 10994 10996 10998 11000 11001 11003 11004 11006 11007 11007 11007 11008 11008 11009 11010 11010 11009 11009 11010 11010 11010 11010 11010 11010 11010 11009 11010 11009 11008 11007 11005
10890 10891 10892 10892 10894 10895 10896 10897 10898 10900 10902 10903 10905 10907 10909 10910 10912 10913 10915 10917 10919 10920 10921 10922 10924 10925 10928 10929 10932 10935 10937 10939 10942 10943 10945 10948 10950 10952 10954 10957 10960 10962 10964 10967 10969 10971 10972 10974 10976 10977 10979 10981 10983 10986 10988 10990 10991 10992 10993 10996 10999 11000 11001 11002 11004 11005 11005 11006 11006 11007 11008 11009 11009 11008 11008 11008 11008 11009 11009 11009 11009 11009 11009 11009 11009 11008 11007 11005
10882 10883 10884 10885 10886 10887 10888 10890 10891 10893 10895 10897 10899 10901 10902 10904 10905 10907 10909 10911 10913 10914 10915 10917 10918 10920 10923 10924 10927 10930 10932 10935 10937 10938 10941 10943 10946 10948 10950 10953 10955 10957 10960 10962 10965 10967 10969 10971 10973 10974 10976 10978 10981 10984 10986 10988 10988 10989 10991 10994 10997 10998 10999 11000 11001 11002 11003 11004 11004 11005 11006 11007 11007 11006 11006 11007 11007 11007 11008 11009 11009 11009 11009 11009 11008 11008 11007 11006
10874 10875 10875 10877 10878 10879 10880 10882 10884 10885 10887 10889 10892 10894 10896 10897 10899 10901 10902 10905 10906 10908 10909 10911 10913 10915 10917 10919 10921 10924 10927 10930 10932 10934 10936 10938 10941 10943 10945 10948 10950 10953 10955 10958 10960 10963 10965 10967 10969 10971 10972 10975 10979 10981 10982 10984 10985 10987 10990 10992 10993 10995 10996 10996 10998 11000 11001 11002 11002 11004 11005 11006 11006 11005 11006 11006 11006 11007 11008 11008 11008 11009 11009 11009 11008 11007 11007 11007
10866 10866 10867 10868 10869 10870 10872 10873 10875 10877 10879 10882 10884 10886 10889 10890 10892 10894 10896 10898 10900 10901 10903 10904 10906 10909 10911 10913 10916 10918 10921 10924 10926 10929 10931 10934 10937 10939 10941 10943 10946 10948 10951 10953 10955 10958 10960 10963 10965 10968 10969 10972 10975 10977 10978 10980 10982 10984 10987 10988 10989 10990 10992 10993 10994 10996 10998 11000 11001 11002 11003 11004 11005 11005 11006 11006 11006 11007 11008 11008 11008 11009 11009 11009 11008 11007 11007 11007
10858 10858 10858 10859 10860 10861 10863 10864 10866 10868 10871 10873 10876 10879 10881 10883 10885 10887 10889 10891 10893 10895 10896 10898 10900 10903 10906 10907 10910 10913 10916 10918 10921 10924 10927 10929 10932 10934 10936 10938 10941 10944 10946 10948 10950 10953 10956 10959 10962 10964 10966 10970 10972 10973 10975 10977 10979 10981 10983 10983 10984 10986 10987 10989 10990 10992 10995 10997 10999 11000 11001 11002 11003 11005 11006 11006 11006 11007 11007 11007 11008 11009 11009 11009 11008 11008 11007 11006
10850 10849 10849 10850 10851 10852 10853 10854 10856 10859 10862 10864 10867 10871 10873 10875 10877 10879 10881 10884 10886 10888 10889 10891 10893 10896 10899 10901 10903 10906 10910 10913 10915 10919 10922 10924 10927 10929 10931 10933 10936 10938 10940 10943 10945 10948 10951 10955 10958 10961 10964 10965 10966 10968 10971 10974 10975 10976 10978 10979 10981 10982 10984 10986 10988 10990 10992 10995 10997 10999 11000 11000 11001 11003 11004 11005 11005 11005 11006 11006 11008 11008 11007 11008 11008 11008 11007 11006
10841 10840 10840 10841 10841 10842 10842 10844 10846 10848 10852 10855 10858 10862 10865 10867 10869 10871 10874 10876 10878 10880 10882 10884 10886 10889 10892 10894 10896 10900 10904 10907 10910 10914 10916 10918 10920 10923 10926 10928 10931 10933 10935 10937 10940 10944 10948 10952 10955 10957 10959 10960 10962 10964 10968 10970 10970 10971 10974 10976 10978 10980 10982 10985 10987 10989 10991 10993 10995 10997 10998 10998 10999 11001 11002 11003 11004 11004 11005 11005 11006 11007 11006 11006 11007 11008 11008 11006
10831 10831 10831 10831 10832 10832 10832 10833 10835 10838 10842 10845 10848 10852 10855 10858 10860 10863 10865 10868 10870 10872 10874 10876 10879 10882 10885 10887 10889 10893 10897 10901 10904 10907 10910 10911 10914 10917 10920 10923 10926 10928 10929 10932 10936 10940 10943 10947 10950 10952 10954 10956 10958 10960 10963 10964 10964 10967 10970 10972 10975 10977 10980 10982 10984 10987 10989 10991 10992 10994 10995 10995 10996 10998 11000 11001 11002 11003 11003 11004 11004 11005 11005 11006 11007 11007 11008 11007
10822 10822 10821 10821 10821 10821 10822 10823 10825 10828 10831 10834 10838 10841 10845 10848 10851 10854 10856 10859 10861 10864 10866 10868 10871 10874 10877 10881 10883 10885 10890 10895 10898 10901 10903 10904 10908 10911 10914 10917 10920 10922 10924 10927 10931 10935 10938 10942 10944 10947 10951 10952 10953 10955 10958 10959 10960 10963 10965 10968 10971 10974 10976 10978 10981 10983 10985 10988 10989 10990 10991 10992 10994 10996 10997 10999 11000 11001 11001 11002 11003 11003 11004 11004 11005 11006 11007 11007
10813 10812 10811 10811 10811 10811 10811 10812 10813 10816 10820 10824 10827 10830 10835 10837 10840 10844 10847 10850 10853 10855 10857 10859 10862 10866 10870 10874 10876 10878 10882 10887 10891 10895 10896 10898 10902 10905 10908 10911 10914 10916 10919 10923 10927 10930 10933 10936 10939 10943 10945 10947 10948 10949 10953 10956 10958 10959 10960 10963 10967 10970 10973 10975 10977 10980 10983 10986 10987 10988 10989 10990 10992 10994 10994 10996 10998 10999 11000 11000 11001 11002 11003 11003 11003 11004 11005 11005
10804 10803 10802 10801 10800 10800 10800 10800 10802 10804 10808 10812 10815 10819 10823 10825 10829 10833 10837 10840 10843 10846 10848 10851 10854 10858 10862 10865 10868 10871 10874 10879 10884 10888 10889 10891 10895 10898 10901 10904 10907 10910 10914 10919 10922 10925 10928 10930 10934 10937 10939 10941 10943 10945 10948 10952 10954 10955 10956 10959 10963 10967 10970 10971 10974 10977 10980 10983 10983 10985 10987 10988 10989 10991 10992 10994 10996 10997 10998 10999 11000 11001 11001 11001 11001 11002 11003 11004
10794 10793 10792 10791 10789 10788 10788 10789 10790 10792 10795 10800 10804 10807 10810 10813 10817 10822 10826 10829 10833 10835 10838 10842 10845 10850 10854 10857 10860 10863 10866 10871 10876 10881 10883 10884 10888 10892 10895 10898 10901 10904 10909 10913 10917 10919 10922 10926 10929 10931 10934 10937 10939 10941 10944 10946 10949 10951 10952 10954 10958 10963 10965 10967 10971 10974 10976 10978 10980 10982 10985 10986 10987 10988 10990 10992 10993 10994 10996 10998 10998 10999 11000 10999 10999 11000 11001 11002
10784 10783 10782 10780 10779 10778 10777 10777 10778 10780 10782 10787 10791 10795 10798 10801 10806 10810 10814 10818 10821 10824 10829 10833 10836 10841 10845 10847 10851 10855 10859 10863 10868 10873 10877 10878 10881 10885 10888 10891 10894 10898 10903 10907 10911 10914 10917 10920 10923 10926 10929 10932 10934 10937 10939 10941 10944 10947 10948 10950 10954 10959 10961 10964 10967 10969 10972 10974 10976 10979 10982 10984 10985 10985 10987 10989 10990 10992 10994 10995 10996 10997 10997 10998 10998 10997 10998 10999
10774 10772 10771 10769 10768 10767 10766 10765 10766 10768 10769 10773 10778 10782 10786 10790 10794 10798 10802 10806 10809 10813 10818 10823 10827 10832 10836 10839 10844 10848 10851 10855 10859 10865 10869 10872 10873 10877 10881 10884 10888 10892 10896 10901 10905 10909 10911 10913 10917 10921 10924 10926 10929 10932 10934 10936 10938 10942 10945 10947 10951 10955 10958 10960 10963 10965 10968 10971 10973 10975 10978 10980 10982 10983 10984 10985 10987 10989 10991 10993 10994 10995 10995 10996 10996 10995 10996 10997
10765 10762 10760 10758 10757 10756 10755 10754 10754 10756 10757 10760 10764 10769 10774 10778 10782 10785 10789 10794 10797 10802 10807 10812 10817 10822 10826 10831 10834 10838 10842 10846 10850 10855 10860 10864 10866 10869 10873 10877 10881 10886 10890 10895 10899 10902 10904 10907 10912 10916 10919 10921 10923 10926 10927 10929 10933 10938 10942 10944 10948 10951 10953 10956 10958 10961 10964 10966 10968 10971 10974 10976 10979 10980 10981 10982 10984 10986 10988 10990 10991 10992 10993 10994 10994 10993 10993 10995
10756 10753 10750 10747 10745 10744 10744 10742 10743 10744 10745 10747 10751 10756 10760 10764 10768 10773 10777 10782 10786 10790 10796 10801 10805 10811 10816 10820 10823 10828 10832 10836 10841 10846 10851 10856 10859 10861 10865 10871 10875 10880 10884 10888 10892 10895 10898 10902 10907 10910 10911 10913 10917 10920 10922 10926 10931 10935 10938 10940 10942 10944 10947 10950 10953 10956 10959 10961 10963 10966 10969 10972 10975 10977 10978 10979 10981 10983 10985 10987 10988 10988 10989 10990 10991 10991 10992 10993
10746 10743 10740 10737 10733 10732 10732 10731 10731 10733 10733 10735 10738 10742 10746 10749 10755 10760 10765 10770 10774 10778 10784 10788 10794 10800 10806 10810 10814 10819 10824 10828 10833 10838 10842 10847 10852 10855 10858 10863 10868 10873 10877 10880 10884 10888 10892 10897 10900 10901 10903 10907 10912 10915 10919 10923 10928 10931 10934 10935 10936 10939 10942 10946 10948 10952 10955 10958 10960 10962 10965 10967 10970 10973 10975 10977 10978 10980 10982 10983 10984 10985 10987 10988 10989 10989 10990 10991
10737 10732 10729 10727 10722 10720 10720 10719 10720 10721 10721 10723 10725 10728 10732 10737 10742 10747 10753 10758 10761 10765 10771 10776 10782 10788 10794 10798 10804 10810 10814 10819 10825 10830 10834 10839 10844 10847 10851 10856 10861 10866 10869 10872 10877 10882 10887 10891 10891 10892 10897 10902 10907 10910 10914 10919 10923 10926 10929 10930 10931 10934 10939 10943 10945 10947 10951 10955 10959 10960 10961 10964 10966 10969 10972 10974 10976 10977 10979 10980 10981 10983 10984 10985 10986 10987 10988 10989
10727 10721 10718 10716 10712 10709 10708 10708 10707 10708 10709 10710 10713 10716 10721 10726 10729 10735 10741 10745 10748 10752 10758 10764 10769 10775 10782 10788 10794 10799 10804 10809 10815 10820 10825 10830 10834 10839 10844 10849 10853 10857 10860 10866 10872 10878 10881 10882 10881 10885 10892 10896 10900 10904 10909 10914 10918 10921 10924 10925 10926 10928 10934 10939 10941 10943 10946 10950 10954 10956 10958 10961 10963 10965 10968 10971 10973 10975 10976 10978 10979 10981 10983 10984 10984 10985 10986 10988
10717 10710 10706 10704 10701 10697 10696 10696 10695 10695 10696 10698 10701 10705 10710 10713 10716 10721 10726 10731 10735 10740 10745 10751 10757 10764 10771 10777 10783 10789 10795 10800 10806 10811 10815 10820 10825 10831 10836 10840 10844 10849 10854 10859 10865 10871 10872 10870 10872 10879 10885 10890 10894 10898 10903 10910 10914 10917 10918 10918 10919 10923 10929 10934 10937 10940 10941 10943 10947 10952 10956 10959 10960 10961 10964 10967 10970 10971 10973 10975 10977 10978 10980 10982 10982 10983 10984 10986
10707 10700 10693 10691 10690 10685 10683 10684 10682 10682 10684 10686 10690 10693 10696 10699 10702 10707 10712 10717 10722 10727 10734 10740 10745 10752 10758 10764 10771 10778 10783 10789 10795 10801 10806 10812 10817 10822 10826 10831 10835 10841 10846 10851 10857 10862 10862 10861 10866 10874 10880 10885 10890 10894 10899 10905 10908 10911 10912 10912 10914 10918 10923 10928 10933 10937 10939 10939 10941 10948 10954 10956 10956 10957 10961 10964 10966 10967 10969 10971 10973 10974 10976 10978 10980 10981 10982 10983
10696 10689 10681 10678 10678 10674 10671 10671 10670 10669 10671 10675 10678 10681 10682 10684 10687 10692 10697 10703 10709 10714 10721 10727 10732 10738 10745 10754 10761 10767 10772 10778 10785 10791 10796 10802 10806 10811 10816 10822 10827 10832 10838 10843 10849 10853 10853 10856 10863 10869 10873 10878 10883 10888 10893 10897 10901 10905 10905 10905 10908 10912 10918 10923 10929 10934 10937 10937 10938 10943 10949 10952 10953 10956 10959 10960 10961 10963 10965 10966 10968 10969 10971 10974 10977 10978 10979 10980
10685 10679 10671 10665 10665 10663 10659 10658 10658 10657 10659 10663 10666 10667 10667 10669 10674 10679 10684 10690 10695 10701 10708 10714 10720 10726 10735 10744 10750 10756 10762 10767 10774 10781 10785 10790 10796 10802 10808 10814 10819 10825 10831 10837 10844 10847 10847 10852 10858 10862 10867 10872 10877 10881 10886 10891 10896 10899 10898 10897 10901 10906 10912 10919 10925 10930 10934 10936 10937 10939 10943 10948 10951 10953 10955 10956 10958 10960 10961 10961 10963 10966 10968 10970 10972 10974 10976 10977
10673 10667 10661 10654 10652 10652 10648 10646 10646 10646 10648 10651 10652 10653 10654 10658 10663 10667 10672 10677 10682 10688 10694 10702 10708 10715 10724 10732 10738 10746 10750 10755 10764 10770 10774 10780 10787 10794 10800 10805 10811 10819 10825 10831 10837 10839 10841 10846 10851 10855 10861 10866 10871 10876 10880 10885 10891 10892 10889 10890 10895 10900 10907 10913 10919 10925 10929 10934 10936 10936 10938 10943 10947 10950 10952 10954 10956 10956 10956 10957 10959 10963 10965 10966 10968 10970 10972 10974
10662 10656 10650 10644 10641 10640 10638 10635 10635 10635 10637 10638 10639 10642 10644 10648 10652 10656 10661 10665 10670 10676 10682 10689 10696 10703 10713 10721 10728 10735 10738 10745 10754 10760 10766 10772 10778 10785 10791 10796 10804 10812 10818 10824 10827 10829 10833 10839 10843 10848 10855 10860 10864 10868 10872 10879 10883 10884 10882 10885 10889 10894 10901 10908 10914 10919 10924 10930 10933 10933 10934 10938 10941 10945 10950 10952 10952 10952 10952 10954 10957 10960 10962 10964 10966 10968 10969 10971
10651 10644 10640 10634 10630 10629 10627 10625 10624 10625 10626 10627 10629 10632 10635 10639 10642 10646 10651 10654 10658 10665 10671 10678 10685 10693 10703 10710 10717 10724 10729 10736 10743 10749 10756 10761 10767 10776 10784 10790 10797 10805 10811 10815 10818 10821 10826 10832 10836 10842 10847 10851 10854 10858 10864 10871 10874 10875 10877 10881 10883 10888 10896 10903 10908 10913 10919 10925 10929 10931 10932 10934 10936 10941 10946 10947 10945 10947 10949 10952 10955 10957 10960 10961 10964 10966 10967 10968
10641 10634 10629 10624 10620 10619 10617 10615 10614 10614 10616 10618 10619 10622 10626 10630 10633 10637 10641 10644 10648 10656 10662 10667 10674 10683 10692 10699 10706 10713 10719 10725 10730 10738 10745 10752 10761 10771 10777 10784 10791 10798 10803 10807 10810 10815 10820 10826 10830 10834 10837 10841 10845 10851 10858 10863 10864 10866 10871 10875 10877 10882 10889 10896 10902 10908 10914 10920 10924 10927 10930 10931 10933 10936 10940 10939 10939 10943 10947 10950 10951 10953 10956 10959 10962 10964 10965 10966
10631 10625 10619 10615 10611 10609 10608 10605 10604 10605 10606 10609 10610 10613 10618 10622 10626 10630 10632 10635 10640 10647 10652 10658 10665 10673 10681 10688 10696 10703 10708 10713 10718 10726 10735 10746 10757 10763 10769 10776 10782 10789 10795 10798 10802 10809 10814 10818 10822 10825 10829 10835 10840 10846 10851 10855 10856 10859 10864 10869 10872 10875 10882 10889 10896 10902 10908 10914 10919 10923 10927 10929 10930 10931 10931 10932 10936 10941 10943 10945 10947 10949 10953 10956 10958 10961 10962 10964
10622 10616 10610 10606 10603 10601 10599 10597 10596 10596 10598 10601 10603 10606 10610 10614 10618 10621 10623 10627 10633 10639 10645 10652 10658 10664 10671 10678 10685 10691 10696 10701 10708 10718 10730 10741 10749 10753 10759 10766 10772 10780 10785 10789 10794 10800 10805 10809 10813 10817 10823 10829 10834 10838 10844 10847 10849 10852 10857 10862 10866 10870 10875 10882 10889 10895 10901 10906 10911 10917 10922 10925 10926 10925 10924 10925 10930 10935 10938 10942 10944 10947 10950 10953 10955 10958 10959 10962
10614 10607 10602 10598 10595 10593 10591 10589 10588 10589 10591 10593 10596 10598 10601 10605 10609 10612 10616 10620 10626 10632 10638 10643 10648 10653 10659 10667 10674 10680 10686 10692 10701 10714 10725 10733 10739 10744 10750 10756 10764 10771 10776 10780 10785 10790 10795 10800 10803 10808 10815 10822 10826 10830 10835 10840 10844 10846 10850 10855 10861 10865 10870 10877 10883 10889 10894 10897 10903 10910 10915 10919 10921 10918 10915 10917 10923 10929 10935 10940 10942 10944 10947 10950 10953 10955 10957 10960
10606 10599 10594 10590 10587 10585 10583 10582 10582 10583 10584 10586 10588 10589 10592 10596 10600 10604 10608 10613 10618 10623 10628 10630 10635 10642 10649 10656 10663 10671 10677 10684 10695 10707 10715 10722 10729 10735 10742 10748 10756 10763 10767 10771 10776 10781 10788 10791 10794 10800 10808 10814 10818 10821 10826 10832 10837 10839 10842 10848 10854 10859 10864 10870 10876 10882 10886 10889 10894 10901 10907 10912 10913 10910 10908 10911 10918 10925 10931 10936 10940 10942 10944 10948 10951 10953 10954 10957
10599 10592 10588 10584 10580 10578 10577 10576 10575 10576 10577 10578 10579 10581 10584 10588 10593 10597 10601 10605 10610 10614 10617 10621 10627 10633 10639 10645 10652 10660 10668 10676 10687 10696 10704 10712 10720 10726 10733 10739 10747 10753 10758 10762 10767 10773 10779 10781 10785 10793 10800 10805 10808 10812 10816 10822 10826 10829 10834 10839 10845 10851 10857 10863 10868 10874 10879 10881 10885 10892 10899 10903 10903 10902 10904 10908 10915 10920 10926 10932 10938 10941 10943 10946 10949 10950 10953 10956
10593 10586 10582 10578 10575 10572 10571 10570 10569 10569 10570 10570 10572 10574 10578 10582 10586 10589 10592 10597 10601 10605 10609 10613 10620 10626 10632 10637 10642 10650 10659 10668 10677 10686 10695 10704 10712 10719 10725 10731 10738 10745 10750 10754 10758 10764 10769 10772 10778 10784 10790 10795 10799 10802 10806 10810 10815 10821 10827 10831 10836 10844 10850 10855 10861 10867 10873 10875 10877 10883 10890 10893 10893 10895 10901 10907 10912 10918 10925 10932 10938 10941 10943 10945 10946 10949 10952 10955
10587 10581 10576 10573 10570 10567 10566 10565 10564 10564 10564 10565 10566 10569 10572 10576 10579 10582 10585 10590 10594 10599 10603 10608 10615 10622 10627 10631 10635 10641 10650 10659 10667 10676 10685 10694 10702 10709 10716 10723 10730 10736 10741 10746 10749 10754 10759 10763 10769 10774 10780 10785 10789 10793 10796 10800 10806 10814 10820 10824 10828 10835 10841 10848 10854 10860 10866 10869 10870 10874 10878 10882 10885 10893 10902 10908 10912 10918 10924 10931 10936 10940 10944 10945 10945 10947 10951 10953
10583 10577 10572 10568 10565 10563 10561 10560 10559 10559 10559 10560 10561 10563 10566 10570 10573 10576 10579 10584 10588 10593 10598 10604 10611 10617 10621 10624 10629 10635 10644 10652 10659 10665 10674 10682 10689 10697 10705 10712 10718 10725 10731 10737 10740 10743 10748 10753 10758 10763 10768 10774 10779 10783 10786 10790 10797 10805 10811 10815 10819 10824 10832 10839 10845 10853 10859 10862 10864 10864 10868 10876 10884 10893 10900 10905 10910 10916 10921 10926 10930 10935 10941 10943 10943 10945 10949 10951
10580 10574 10568 10564 10561 10558 10557 10556 10555 10554 10555 10555 10557 10560 10562 10566 10569 10572 10575 10578 10582 10587 10592 10598 10605 10610 10613 10617 10622 10628 10635 10642 10649 10654 10660 10669 10676 10684 10691 10699 10706 10712 10719 10725 10729 10732 10736 10741 10748 10752 10756 10762 10768 10771 10774 10780 10788 10796 10801 10806 10810 10816 10824 10831 10837 10844 10848 10852 10855 10854 10858 10871 10883 10889 10893 10899 10907 10912 10917 10922 10926 10930 10935 10939 10940 10942 10946 10949
10577 10571 10566 10561 10558 10555 10553 10552 10551 10550 10550 10552 10553 10556 10558 10560 10564 10568 10570 10573 10577 10581 10586 10591 10597 10602 10606 10611 10616 10620 10625 10632 10638 10643 10648 10656 10664 10670 10678 10685 10692 10699 10706 10712 10717 10720 10725 10730 10735 10739 10744 10750 10755 10758 10764 10771 10779 10785 10791 10798 10803 10808 10817 10823 10827 10833 10837 10842 10844 10844 10850 10864 10876 10881 10886 10894 10902 10908 10912 10917 10922 10926 10929 10932 10935 10938 10941 10945
10574 10569 10563 10559 10555 10552 10550 10549 10547 10547 10547 10548 10550 10552 10553 10555 10559 10563 10566 10568 10572 10576 10580 10584 10589 10594 10598 10602 10606 10610 10615 10621 10627 10632 10638 10646 10654 10660 10667 10673 10679 10686 10692 10698 10703 10707 10713 10718 10721 10724 10730 10736 10741 10748 10756 10763 10770 10775 10780 10788 10795 10801 10809 10815 10819 10824 10830 10835 10836 10837 10843 10854 10865 10873 10879 10886 10895 10901 10906 10911 10915 10919 10922 10925 10929 10932 10935 10938
10573 10567 10561 10557 10553 10550 10548 10546 10545 10544 10545 10546 10548 10549 10550 10552 10556 10559 10562 10564 10567 10570 10573 10577 10581 10585 10590 10593 10598 10602 10606 10611 10617 10622 10628 10635 10643 10651 10656 10662 10668 10674 10679 10685 10690 10694 10700 10705 10706 10708 10714 10722 10729 10738 10746 10752 10759 10764 10770 10779 10786 10793 10800 10806 10811 10816 10822 10827 10829 10832 10838 10845 10854 10864 10871 10879 10887 10894 10900 10905 10909 10913 10916 10918 10921 10924 10928 10931
10571 10565 10560 10555 10551 10548 10546 10544 10543 10542 10542 10543 10545 10546 10547 10549 10552 10555 10557 10559 10561 10563 10566 10570 10574 10579 10584 10589 10593 10597 10601 10605 10610 10615 10620 10625 10632 10639 10645 10650 10656 10662 10667 10673 10678 10682 10687 10691 10692 10693 10700 10710 10718 10727 10734 10741 10748 10753 10759 10769 10777 10784 10790 10796 10802 10807 10811 10816 10820 10825 10833 10838 10845 10855 10864 10872 10879 10886 10892 10897 10902 10906 10909 10911 10913 10916 10922 10927
10570 10564 10559 10554 10550 10547 10544 10543 10541 10540 10540 10541 10542 10543 10544 10545 10547 10550 10552 10554 10556 10559 10562 10564 10568 10573 10578 10582 10587 10591 10594 10598 10602 10607 10612 10617 10623 10629 10635 10639 10645 10651 10657 10663 10669 10673 10677 10681 10681 10682 10689 10699 10707 10715 10723 10731 10738 10743 10750 10759 10767 10774 10781 10786 10792 10797 10800 10805 10810 10817 10825 10831 10837 10848 10857 10865 10872 10878 10883 10889 10894 10899 10902 10904 10907 10912 10917 10924
10570 10563 10557 10553 10549 10545 10543 10541 10540 10539 10538 10539 10540 10541 10541 10542 10544 10546 10549 10551 10552 10555 10558 10560 10563 10568 10572 10576 10580 10584 10588 10592 10596 10600 10605 10610 10615 10621 10625 10630 10635 10641 10647 10653 10659 10665 10670 10674 10675 10676 10681 10690 10700 10708 10715 10723 10729 10735 10742 10750 10757 10764 10770 10775 10782 10787 10792 10796 10801 10808 10817 10824 10831 10840 10848 10856 10864 10870 10875 10881 10886 10891 10895 10899 10904 10908 10911 10917
10568 10562 10557 10552 10548 10544 10541 10539 10538 10537 10537 10537 10538 10538 10539 10540 10541 10543 10545 10547 10548 10551 10554 10556 10559 10563 10566 10570 10573 10577 10581 10584 10588 10593 10597 10602 10607 10612 10617 10621 10625 10631 10637 10642 10648 10654 10659 10663 10665 10666 10671 10682 10693 10701 10707 10714 10721 10728 10734 10740 10747 10753 10759 10765 10771 10776 10783 10787 10790 10798 10809 10818 10824 10831 10839 10846 10854 10861 10867 10873 10878 10883 10887 10893 10899 10904 10906 10909
10566 10561 10556 10552 10548 10544 10541 10538 10537 10536 10535 10536 10536 10536 10537 10537 10538 10539 10541 10543 10545 10547 10550 10552 10554 10556 10559 10563 10567 10570 10574 10578 10582 10586 10590 10594 10599 10603 10608 10612 10616 10622 10627 10632 10638 10644 10649 10652 10653 10655 10659 10668 10679 10687 10695 10702 10710 10718 10724 10730 10736 10742 10747 10754 10760 10766 10772 10775 10779 10788 10800 10808 10816 10824 10831 10838 10846 10853 10859 10864 10870 10874 10879 10886 10892 10898 10900 10902
10566 10561 10556 10551 10547 10544 10540 10537 10536 10534 10534 10534 10534 10534 10534 10535 10536 10536 10537 10539 10541 10543 10545 10547 10549 10551 10553 10556 10560 10564 10567 10571 10575 10578 10582 10586 10590 10595 10599 10603 10607 10611 10616 10622 10628 10634 10639 10642 10643 10644 10648 10654 10663 10672 10680 10689 10697 10706 10712 10717 10724 10730 10735 10742 10748 10754 10759 10763 10769 10781 10791 10800 10809 10818 10823 10829 10836 10843 10850 10855 10860 10865 10871 10878 10884 10890 10894 10897
10568 10561 10556 10551 10547 10543 10540 10537 10535 10533 10532 10532 10531 10532 10532 10532 10533 10533 10534 10535 10536 10539 10541 10542 10544 10546 10547 10550 10554 10557 10561 10564 10567 10570 10574 10578 10582 10587 10591 10594 10598 10602 10606 10611 10617 10622 10628 10632 10633 10634 10636 10640 10648 10658 10667 10676 10684 10692 10699 10704 10710 10716 10721 10727 10734 10741 10748 10753 10761 10773 10784 10792 10801 10809 10815 10820 10826 10832 10840 10846 10852 10857 10863 10869 10876 10882 10887 10891
10569 10563 10557 10552 10547 10543 10540 10537 10534 10532 10531 10530 10529 10529 10529 10530 10530 10531 10531 10531 10533 10534 10536 10538 10539 10541 10542 10544 10547 10550 10553 10557 10560 10563 10567 10571 10575 10579 10583 10587 10590 10593 10597 10601 10605 10610 10616 10621 10623 10624 10626 10628 10635 10644 10654 10664 10672 10680 10686 10691 10696 10700 10705 10712 10720 10730 10738 10744 10751 10763 10775 10782 10790 10798 10804 10810 10814 10821 10829 10836 10842 10849 10855 10861 10868 10874 10879 10884
10569 10563 10557 10552 10547 10543 10540 10536 10534 10532 10530 10528 10527 10527 10527 10527 10527 10528 10528 10528 10529 10530 10531 10532 10533 10535 10537 10539 10541 10543 10546 10549 10553 10557 10560 10563 10567 10571 10575 10579 10582 10585 10588 10591 10595 10599 10604 10609 10612 10614 10615 10617 10622 10630 10640 10650 10660 10667 10673 10677 10681 10685 10692 10700 10708 10716 10724 10731 10739 10750 10761 10770 10778 10786 10792 10798 10803 10809 10817 10826 10833 10840 10847 10853 10860 10866 10871 10876
10568 10562 10556 10551 10547 10543 10540 10537 10534 10531 10529 10528 10526 10525 10525 10524 10524 10524 10524 10524 10525 10525 10525 10526 10528 10530 10532 10533 10535 10537 10540 10543 10546 10549 10553 10556 10559 10563 10567 10571 10573 10576 10579 10583 10586 10589 10592 10596 10601 10605 10607 10608 10611 10618 10625 10635 10645 10652 10657 10662 10667 10673 10681 10689 10695 10701 10710 10718 10726 10735 10747 10757 10766 10774 10780 10787 10793 10797 10805 10816 10824 10831 10838 10845 10852 10858 10863 10867